RH
93 94 91 89 95 99 98 95 86 77 66 53 46 49 55 57 57 56 55 60 67 74 82 86 82 72 65 66 68 70 73 73 71 68 66 64 64 64 64 63 60 56 52 44 33 25 22 22 22 24 25 27 28 30 31 33 35 36 36 36 35 34 31 28 30 32 32 32 33 34 35 36 37 38 39 40 40 40 41 42 41 41 40 40 40
90 88 86 84 91 96 96 97 91 80 67 55 51 52 54 56 56 55 53 54 58 65 72 75 73 68 67 70 74 74 73 71 68 65 64 63 64 64 64 62 57 53 46 36 27 23 22 22 23 25 27 29 31 33 35 36 37 38 38 38 36 33 29 29 32 33 34 35 37 38 39 40 42 43 44 44 44 44 45 45 45 44 44 45 46
88 83 81 80 85 90 91 95 94 85 73 64 61 60 58 57 56 54 53 52 53 56 60 63 67 71 74 77 77 73 69 66 65 65 64 65 66 66 64 60 56 50 40 29 23 22 22 22 25 27 30 32 34 37 39 40 41 41 40 38 34 31 31 33 34 35 37 39 41 43 44 44 45 47 48 49 48 47 48 49 49 49 49 49 50
90 83 79 77 81 86 87 90 95 91 82 76 73 71 68 62 60 58 56 54 53 55 59 65 73 78 78 76 73 68 66 66 67 66 65 67 67 66 64 60 52 43 33 25 22 22 23 24 27 30 34 36 39 41 42 43 43 42 40 35 33 33 35 36 36 38 40 44 46 46 47 47 49 51 52 52 49 48 47 47 48 49 50 51 52
88 84 80 78 80 84 84 85 92 95 91 86 83 81 78 72 68 64 61 59 55 56 63 71 76 77 73 70 67 66 67 68 68 67 66 68 67 66 64 51 38 31 27 23 22 23 24 27 30 34 37 39 42 43 43 44 43 40 37 35 36 37 37 38 39 41 44 47 49 49 50 51 51 50 49 49 48 46 46 46 46 47 47 49 51
81 80 81 79 80 82 82 82 88 97 98 95 93 90 86 81 77 71 67 64 60 57 62 70 73 71 70 68 68 68 69 70 70 68 67 67 66 67 58 37 26 24 24 23 24 26 27 30 33 36 39 40 42 43 44 43 40 38 37 39 39 38 38 40 42 45 49 50 51 53 53 50 47 46 46 47 47 46 45 45 45 45 46 46 48
78 76 77 78 79 80 80 80 85 97 101 100 99 96 91 86 81 75 70 69 66 61 62 68 71 70 69 70 71 71 71 72 70 69 68 66 67 69 53 34 27 24 23 24 25 27 29 32 36 38 40 41 43 43 43 41 39 40 42 42 40 39 40 42 45 49 53 54 56 56 51 46 45 45 46 47 48 47 45 44 44 45 46 46 47
79 76 76 77 78 78 78 77 81 93 100 99 98 96 93 87 81 76 72 71 71 65 62 67 71 72 71 73 73 73 74 72 70 70 66 60 66 69 54 38 31 24 23 26 27 29 31 35 37 39 41 43 44 43 41 39 41 45 46 44 42 42 43 44 50 55 57 58 60 55 47 44 45 46 47 48 49 48 45 44 44 46 47 48 49
82 81 82 81 80 79 76 76 81 91 98 98 96 95 92 85 79 75 71 72 72 67 64 66 70 73 74 74 74 75 74 69 70 70 57 47 54 59 49 37 30 24 25 27 28 31 34 38 40 42 44 45 44 41 39 40 45 49 47 46 44 44 45 49 55 60 62 62 60 52 46 46 47 48 49 49 50 49 46 45 46 50 51 52 53
87 88 88 86 84 79 76 77 82 92 97 97 96 94 89 83 78 73 71 71 71 70 68 68 70 75 76 75 75 74 69 66 71 69 53 41 42 42 37 32 27 25 27 28 30 34 37 40 42 45 46 44 42 39 40 44 49 49 46 45 44 45 48 53 59 63 64 62 55 49 47 49 50 49 49 50 51 49 47 46 48 52 54 56 55
89 91 92 90 84 77 77 78 83 91 95 94 92 90 87 82 77 73 70 69 71 73 73 74 78 81 79 76 74 69 64 67 73 71 57 45 38 33 30 28 26 27 29 31 33 36 40 43 45 46 45 42 40 40 45 51 51 46 43 43 44 47 51 56 61 63 63 58 51 49 50 52 52 50 50 52 51 48 48 49 51 53 55 56 55
87 92 93 90 82 77 78 78 83 89 90 87 84 83 84 82 76 72 69 70 74 76 76 81 86 85 81 76 71 65 64 67 66 62 53 43 36 31 28 27 27 29 31 33 36 39 42 44 46 46 43 41 41 47 54 56 50 44 42 43 45 50 53 58 61 61 58 53 49 50 53 54 52 51 52 52 50 48 49 52 54 56 56 56 54
83 90 95 90 80 77 77 78 85 88 85 81 79 80 83 82 77 73 74 80 82 81 82 87 87 84 80 73 68 65 65 61 54 52 48 39 32 28 28 28 29 32 34 36 39 41 43 44 45 44 41 41 46 54 57 52 45 43 43 45 48 52 55 58 59 55 52 49 49 52 55 55 54 54 53 52 49 49 53 56 58 57 56 54 51
81 91 96 88 80 78 77 82 88 86 81 78 79 82 84 84 79 77 84 90 89 88 90 89 84 80 75 70 68 67 65 57 49 51 50 38 29 28 29 29 32 34 37 40 41 42 43 45 44 41 40 43 49 51 48 44 42 43 45 48 50 53 56 57 55 51 49 49 51 55 57 57 57 55 54 51 50 52 56 58 57 56 53 49 45
82 92 94 86 81 79 79 86 87 81 78 80 84 85 85 83 79 82 91 92 89 93 96 89 80 76 71 69 69 67 63 56 47 48 48 35 27 29 30 32 35 37 41 43 44 44 44 44 42 40 40 43 45 44 42 42 44 46 48 50 52 55 56 54 51 49 49 51 54 59 60 59 57 55 53 51 51 54 57 57 55 52 48 43 41
87 94 92 84 80 77 80 85 82 78 82 88 89 87 84 81 79 84 87 86 91 101 102 90 78 73 72 71 68 64 61 56 47 44 42 31 27 31 31 35 38 40 44 45 45 46 45 44 40 40 41 42 42 42 43 44 45 47 49 51 54 56 54 52 51 50 51 53 57 61 61 59 56 54 53 51 52 54 56 56 52 48 43 40 40
94 96 88 79 74 74 80 84 81 84 91 93 91 87 82 75 73 75 77 84 97 106 104 89 76 71 72 71 67 64 61 55 47 43 37 29 28 32 33 38 41 42 45 45 46 46 44 42 40 41 42 41 42 43 44 44 45 47 49 53 55 55 53 52 53 53 54 56 59 62 60 56 54 53 53 51 53 55 55 54 49 45 42 41 42
97 92 81 73 70 75 85 87 87 92 95 94 92 90 83 73 69 73 82 94 101 104 102 87 72 70 71 70 68 67 58 48 45 40 33 28 30 34 36 40 42 44 45 46 47 46 43 42 40 42 42 42 44 44 45 45 45 48 51 54 56 55 54 54 56 57 58 60 62 62 58 54 53 52 52 52 54 55 54 51 47 45 44 44 42
91 84 76 70 71 81 90 91 94 98 97 96 97 94 86 79 78 84 94 103 104 105 100 83 71 72 74 72 70 63 49 42 43 36 29 29 32 35 38 42 43 45 46 47 48 45 43 42 42 43 43 44 47 47 46 45 47 51 53 56 56 56 56 59 62 63 63 62 61 60 56 53 52 50 52 53 56 56 52 49 47 48 48 45 39
85 80 75 72 76 87 94 95 99 101 99 101 103 98 94 93 93 95 99 103 104 104 96 82 75 76 77 75 67 54 44 42 40 32 29 30 32 36 39 43 45 47 47 48 48 45 44 43 43 44 44 46 49 49 47 47 50 53 54 56 57 57 61 65 68 69 68 63 59 58 54 51 49 50 53 55 57 56 52 50 49 51 50 42 35
82 81 78 76 82 91 96 95 99 103 103 106 107 106 106 104 100 99 101 102 101 100 94 82 76 78 78 71 56 47 44 41 34 29 29 30 32 36 40 44 47 48 48 49 48 46 45 44 44 45 45 48 50 49 49 50 53 54 54 57 59 63 68 70 71 73 72 65 60 58 53 50 50 52 55 56 58 57 53 52 53 53 46 37 32
84 85 83 82 88 95 96 94 99 104 105 107 110 110 109 103 100 101 103 104 102 99 91 80 77 80 74 58 47 45 42 35 29 28 29 29 32 36 40 44 47 48 49 50 49 47 46 45 45 46 46 48 50 50 51 52 53 53 56 61 66 70 73 72 74 78 76 68 62 59 54 51 51 54 57 58 60 58 53 53 53 50 39 31 30
89 90 88 89 93 95 94 93 100 105 107 109 109 109 107 103 103 105 105 105 102 93 84 78 77 73 60 48 44 42 35 30 29 29 30 32 34 37 40 43 46 48 49 50 50 49 48 48 47 47 48 50 52 52 52 52 52 55 61 69 73 75 75 75 77 80 77 70 64 61 56 53 53 56 59 60 61 57 52 52 52 45 35 30 31
94 96 96 95 95 94 92 93 100 105 106 108 108 108 110 107 105 107 108 105 97 87 78 70 64 57 48 43 41 37 33 32 31 32 35 37 38 39 41 42 45 47 49 51 51 51 50 50 49 50 51 52 53 52 52 52 55 61 70 76 78 78 76 76 78 78 74 69 66 63 58 55 55 58 60 61 60 54 51 53 50 41 33 33 34
98 102 99 95 96 96 95 97 102 103 102 105 108 109 109 107 107 109 106 100 91 80 65 53 49 47 44 41 39 37 35 33 34 37 39 41 43 44 44 44 45 46 48 50 51 53 53 53 53 54 54 54 53 52 54 57 62 68 74 78 81 80 77 76 76 74 72 70 68 64 58 55 56 59 61 61 58 52 52 53 47 38 33 34 35
102 102 96 94 98 100 100 99 99 100 102 106 108 105 105 106 105 102 100 94 81 61 47 45 48 47 45 44 42 38 36 36 39 41 41 43 46 47 48 49 50 50 50 50 52 55 56 56 56 56 55 55 55 56 60 65 69 73 77 80 82 80 77 76 74 73 73 72 69 63 57 55 58 60 62 61 55 51 52 51 42 34 32 34 33
104 100 95 95 98 101 101 97 96 99 103 104 104 102 101 100 96 96 95 81 58 44 44 50 51 49 49 47 42 40 41 42 43 42 43 45 46 48 51 54 57 58 57 57 57 58 57 57 57 56 57 59 60 64 69 72 75 79 82 83 83 81 78 77 76 76 75 71 67 62 57 57 60 62 63 59 53 51 52 48 38 33 32 34 32
104 99 94 93 97 99 97 94 95 99 103 103 100 96 95 97 99 94 77 55 42 46 53 55 55 54 52 47 45 46 46 45 46 47 47 46 46 47 49 53 58 61 63 63 63 61 61 61 61 62 64 67 69 73 77 79 83 87 87 86 85 83 81 80 78 76 73 70 67 61 57 58 61 64 62 56 51 51 52 44 36 33 33 33 32
99 94 88 85 89 91 87 85 89 95 98 92 82 82 89 98 95 72 49 40 46 56 59 58 57 56 53 51 51 48 44 45 48 49 48 45 44 44 46 49 52 58 63 66 67 67 67 69 69 69 71 75 79 82 85 87 91 93 92 91 90 87 84 81 77 73 72 71 66 60 57 58 62 64 60 54 52 53 50 40 33 33 33 32 31
81 77 74 73 74 70 65 67 74 78 73 62 58 69 79 78 63 43 38 47 57 62 61 57 56 57 58 56 49 43 41 45 48 49 47 45 45 45 46 46 48 55 62 67 71 73 74 76 74 75 80 84 88 90 93 96 99 101 99 96 94 89 84 79 74 74 75 72 65 58 56 59 63 64 59 53 53 53 45 35 33 35 34 32 31
60 58 57 57 52 46 45 51 56 52 45 44 49 56 55 47 38 37 47 58 62 61 57 58 61 61 57 50 43 41 43 47 50 51 49 47 48 48 49 49 51 55 60 67 73 76 80 83 82 84 89 92 96 100 103 104 103 104 103 97 91 86 81 78 76 78 77 70 62 57 57 61 64 63 58 54 54 49 38 32 35 37 36 33 31
46 44 44 41 36 34 37 40 40 37 37 40 40 40 38 35 38 48 59 62 60 59 61 68 67 58 49 44 42 43 46 50 52 52 51 50 51 52 54 54 55 56 59 63 67 70 74 79 81 85 90 98 107 108 104 100 99 101 101 93 86 85 83 81 81 82 76 67 59 56 58 63 65 61 56 54 51 42 32 33 39 40 36 32 30
38 37 35 32 29 31 33 34 34 33 33 33 33 34 35 38 49 62 66 63 62 67 75 76 64 51 47 47 46 47 49 51 51 52 53 53 55 58 59 59 59 59 60 60 61 64 68 73 80 87 94 101 104 100 93 93 99 101 96 87 83 87 89 86 85 82 73 63 57 57 61 65 64 58 54 53 46 34 30 37 42 39 33 29 29
34 32 29 28 29 30 31 31 31 32 33 35 36 37 41 52 65 70 66 65 69 78 83 75 59 53 54 52 52 52 51 50 52 57 58 57 59 63 64 64 64 61 62 62 61 64 68 73 77 82 86 87 86 85 88 96 103 99 89 83 83 87 90 88 86 78 67 59 56 58 64 65 60 55 53 50 39 29 32 41 40 34 29 26 28
31 28 26 27 28 29 32 35 37 40 42 40 40 46 56 67 71 68 66 69 77 86 85 71 60 60 59 55 55 53 48 50 58 64 63 60 60 64 66 68 67 64 65 67 67 68 69 69 68 67 69 73 77 84 91 99 100 93 86 85 85 87 91 89 83 72 61 57 57 61 65 62 56 53 52 45 32 29 37 39 34 29 26 26 29
27 26 28 31 34 39 44 47 49 48 44 43 49 60 69 72 70 67 70 78 86 90 82 68 65 65 58 53 53 49 45 52 68 75 68 59 57 60 64 66 68 68 67 68 73 75 72 69 67 63 62 68 79 90 96 98 94 86 85 88 90 93 94 88 77 65 58 56 59 63 64 58 52 52 50 37 27 32 38 34 28 27 26 28 31
29 33 39 43 48 54 56 56 54 52 52 58 65 69 71 70 69 71 82 92 93 89 77 68 69 67 57 52 53 49 46 57 77 83 72 59 53 55 59 62 65 68 67 71 79 77 67 62 65 67 64 67 81 95 98 95 88 84 87 95 100 101 95 82 69 60 56 57 60 63 61 54 51 52 45 31 28 35 34 27 25 26 27 30 31
42 48 51 54 58 61 61 58 57 60 68 72 71 70 70 71 73 80 91 93 86 84 79 73 74 72 61 57 59 56 51 63 84 87 73 59 52 52 57 58 60 65 70 77 80 74 64 57 59 65 66 68 83 96 97 93 89 88 93 101 107 103 88 74 63 57 56 58 61 62 57 52 52 51 39 29 32 35 28 23 24 26 28 31 32
53 55 56 58 59 59 57 55 58 65 70 69 69 70 72 74 75 78 80 74 76 89 89 79 79 79 69 65 71 67 58 69 90 91 77 62 52 51 56 58 60 64 68 72 70 67 67 64 59 62 66 72 86 97 96 94 95 97 103 107 104 94 79 66 59 56 58 62 64 62 55 50 52 47 32 29 35 32 24 22 24 26 29 33 33
56 56 57 58 57 55 53 53 58 63 63 65 70 73 78 81 78 77 79 79 87 97 91 81 83 82 73 74 82 75 64 76 94 95 84 69 55 52 55 58 62 65 65 65 61 61 66 64 59 62 68 76 89 99 100 100 103 107 110 109 98 83 70 61 57 59 64 68 68 63 55 51 51 41 29 33 38 30 23 24 25 27 30 32 33
58 58 57 56 55 52 52 54 58 59 62 69 74 78 88 95 92 92 96 96 93 88 83 83 88 87 80 82 89 77 65 81 98 98 91 77 59 54 55 55 58 62 64 64 60 61 62 59 60 67 74 83 94 101 103 105 109 111 109 103 90 73 63 59 59 63 68 71 70 64 57 54 49 35 29 38 40 30 26 26 26 29 31 32 33
60 56 55 56 56 55 54 55 56 58 63 71 77 86 98 102 100 100 101 98 88 76 79 91 96 96 91 90 92 77 63 81 101 101 97 87 66 55 54 51 52 58 65 65 63 63 60 57 66 76 83 91 96 98 101 105 109 111 105 94 79 65 59 60 62 65 70 74 72 65 61 56 44 31 32 41 39 30 29 29 29 30 31 31 31
59 56 57 58 58 57 56 56 57 58 61 71 83 96 102 102 101 100 100 101 93 81 86 97 100 100 97 94 95 81 65 79 100 101 100 97 76 57 53 50 47 53 64 67 67 66 60 58 69 80 87 93 96 99 103 105 107 108 100 84 69 59 57 61 65 70 75 78 74 67 65 58 41 28 34 41 35 30 30 30 30 31 30 31 30
59 59 61 62 62 61 60 59 56 57 67 84 97 103 101 100 102 101 100 102 98 92 95 100 100 100 97 94 97 91 77 83 99 100 100 101 82 61 56 52 45 51 62 67 69 69 63 61 68 79 89 94 98 102 105 105 106 105 93 75 62 56 56 61 67 73 78 80 74 67 65 58 39 30 37 39 31 29 30 29 31 32 30 30 28
63 65 65 65 66 66 64 58 54 64 85 98 102 101 99 100 101 100 100 102 99 98 100 100 99 99 96 93 98 100 93 94 101 100 101 102 84 65 59 52 45 51 59 64 70 72 68 65 68 80 93 98 101 106 106 105 105 99 84 66 57 56 57 62 68 73 77 77 70 66 64 54 40 36 39 36 28 28 30 30 32 32 32 30 26
67 67 66 67 69 69 65 57 57 76 97 103 101 100 100 101 101 100 100 100 99 101 101 100 100 99 97 96 99 102 100 99 101 100 103 102 84 67 62 52 45 51 58 63 73 76 73 70 72 85 97 99 100 106 108 106 102 90 74 60 56 56 59 63 69 74 76 73 67 65 60 48 42 45 42 33 27 27 30 32 33 33 33 30 24
68 70 71 71 72 71 66 59 56 67 88 101 101 100 101 101 100 100 99 99 101 102 100 100 101 99 98 99 99 101 101 100 100 100 104 102 85 70 63 51 44 50 58 65 77 82 77 73 76 87 96 95 94 101 108 108 98 82 66 57 55 58 62 67 71 74 74 70 65 63 56 44 46 54 47 32 26 27 31 34 34 34 34 31 24
70 75 77 73 74 74 70 63 54 58 85 107 102 96 101 102 99 99 99 100 101 100 100 102 101 99 99 99 99 101 101 100 101 101 104 103 88 72 63 51 43 50 58 68 80 86 85 83 80 82 86 86 86 95 108 108 93 74 62 56 57 61 65 70 73 75 74 68 63 60 51 42 50 60 51 35 26 26 31 35 35 34 36 33 25
74 79 79 77 80 79 72 66 57 59 86 108 100 93 100 101 98 100 101 101 101 99 100 102 101 101 101 98 100 103 100 98 100 102 105 103 88 74 63 49 44 52 60 68 80 88 92 96 93 84 80 79 79 90 106 104 86 69 60 56 60 65 68 72 77 77 73 67 63 58 47 41 51 60 53 41 31 26 31 36 36 35 38 36 27
77 81 83 84 85 80 73 75 80 84 95 104 100 98 102 101 98 99 99 99 101 99 99 101 101 101 98 99 106 103 91 90 96 102 107 102 88 76 64 49 46 55 62 67 79 87 90 98 103 97 89 83 80 86 98 96 81 66 58 57 62 68 70 73 79 79 73 67 65 58 45 42 53 57 50 44 39 33 34 37 37 37 40 38 29
75 80 85 88 89 90 87 85 88 90 92 98 101 102 102 101 98 96 95 97 98 98 97 100 101 98 97 103 104 92 84 90 98 105 109 101 88 77 64 50 49 58 61 64 74 84 90 97 104 105 101 94 86 85 89 89 79 65 57 58 66 72 73 76 80 79 74 69 66 58 45 44 55 57 48 42 40 38 38 39 37 38 40 36 28
Wind_Speed
31 31 31 31 31 31 34 36 37 36 36 35 33 33 33 34 35 36 36 37 36 36 35 35 36 37 39 39 38 39 40 43 46 48 49 50 50 50 49 49 50 51 52 52 53 51 50 48 46 45 44 43 43 43 42 42 43 44 44 45 46 47 47 48 49 49 49 49 49 49 50 51 52 54 55 55 55 55 56 56 57 57 57 57 57
31 31 32 32 32 32 33 36 37 36 35 33 32 32 32 34 35 36 37 37 37 37 37 38 39 40 40 40 39 40 42 45 47 49 50 50 50 50 50 50 51 52 53 53 52 51 49 47 46 45 44 43 43 43 43 43 44 45 46 46 47 47 48 49 49 49 49 49 50 51 52 53 54 55 55 55 55 56 57 58 59 59 58 58 58
33 33 34 34 34 34 34 36 37 36 34 33 32 32 32 34 36 37 38 39 38 38 38 39 39 40 39 39 40 42 44 47 48 50 50 51 51 50 51 51 52 54 54 53 51 50 48 47 46 45 44 43 43 43 43 44 44 45 46 47 47 48 49 49 49 49 49 50 51 52 53 54 54 54 55 56 57 57 57 58 58 59 58 58 58
36 36 36 36 36 36 36 37 37 36 35 34 34 33 34 36 37 39 40 40 39 39 38 38 38 38 38 39 41 44 46 48 49 50 51 51 51 51 52 53 54 55 54 52 51 49 47 46 45 44 44 43 43 43 43 44 45 46 46 47 47 48 49 49 49 49 49 50 52 53 54 54 54 54 55 57 58 58 58 58 58 58 57 57 57
39 39 39 39 39 38 38 38 38 38 36 36 36 36 37 38 40 41 42 42 41 39 38 37 37 38 40 41 44 45 47 49 50 51 51 51 51 51 52 54 55 54 53 52 50 48 47 45 44 43 43 43 43 43 44 44 45 46 47 47 48 48 48 49 49 50 50 51 53 54 54 54 54 55 56 57 59 60 60 60 59 58 57 57 56
40 40 40 40 40 40 40 39 39 39 38 38 38 39 40 41 42 43 43 43 42 41 39 38 38 40 41 43 45 46 48 50 50 51 51 51 51 52 53 54 54 54 53 51 49 47 46 44 43 43 42 42 43 43 44 44 45 46 47 47 48 48 49 49 50 51 52 53 54 54 54 54 54 55 57 59 61 62 62 61 60 59 59 58 57
41 40 41 41 41 41 41 40 40 40 40 40 40 41 42 43 44 45 45 44 43 42 40 40 40 41 42 44 46 47 49 50 51 51 51 51 52 52 53 54 54 54 52 50 48 46 45 44 43 42 42 43 43 43 44 44 45 46 47 48 49 49 50 50 51 52 53 54 55 55 55 55 56 57 59 61 63 64 64 63 61 60 59 59 58
42 41 41 42 42 42 41 40 40 40 41 41 42 42 43 44 45 45 45 44 44 43 42 41 41 42 43 45 47 49 50 50 50 50 51 52 52 53 54 54 54 53 51 49 47 45 44 43 43 42 42 43 43 43 43 44 45 46 47 48 49 50 50 51 52 54 55 55 56 56 56 56 58 60 62 64 65 66 66 64 62 60 60 59 59
43 43 42 42 42 41 40 39 39 40 41 41 42 44 44 45 46 46 45 44 44 43 43 42 42 43 45 47 48 50 50 50 50 49 51 53 53 53 54 55 54 52 50 47 46 44 44 43 43 42 42 42 43 43 44 45 46 47 48 49 50 50 51 52 53 55 56 56 56 57 57 58 60 62 64 66 68 69 68 65 62 61 60 60 60
45 44 43 42 41 40 39 39 39 40 40 41 43 44 46 46 46 46 45 44 43 43 43 43 44 45 46 48 50 50 50 50 49 49 52 54 54 54 54 54 53 51 48 46 44 43 43 43 43 42 42 43 43 44 45 46 46 48 49 50 51 51 52 53 54 55 57 57 57 58 59 60 62 64 67 69 70 70 68 65 62 60 60 60 60
45 44 42 41 40 39 38 38 39 39 41 42 44 45 47 47 46 45 45 44 43 43 43 44 45 46 48 49 50 50 50 50 50 51 53 55 55 55 55 54 52 49 47 45 43 43 43 43 43 43 43 43 44 45 46 46 48 49 50 51 51 52 52 53 54 56 57 58 58 59 60 62 64 66 68 71 72 70 68 65 62 60 60 61 61
43 42 41 40 40 39 38 38 39 40 42 43 45 46 47 47 46 46 45 44 43 42 43 44 46 48 49 49 49 49 49 49 51 53 55 56 56 55 54 52 50 48 46 44 43 42 43 43 43 43 43 44 45 46 46 48 49 50 50 51 52 53 53 54 55 56 57 58 58 60 62 63 66 68 70 72 73 71 67 64 63 62 62 62 63
42 41 41 40 39 39 39 39 40 41 43 45 46 46 46 46 46 46 45 44 42 42 43 45 47 49 49 49 49 49 49 50 52 54 55 57 56 55 52 50 48 47 45 44 43 43 43 43 42 43 44 45 46 46 47 49 50 50 50 51 53 53 54 55 56 57 57 58 59 61 63 65 67 69 72 73 73 70 67 64 64 64 64 64 64
41 41 41 40 40 39 39 40 41 43 45 46 47 46 45 46 46 45 43 42 42 43 44 47 48 49 48 49 49 50 50 51 54 55 56 57 55 52 50 49 47 46 45 45 44 44 44 43 42 43 44 45 46 47 48 49 49 50 51 52 53 54 55 56 56 57 57 58 60 62 64 66 69 71 73 74 73 70 67 65 65 65 66 66 66
41 41 41 40 40 40 40 41 43 44 46 46 46 46 45 45 44 42 40 41 43 45 47 49 49 49 49 49 50 51 51 53 56 57 57 57 53 50 49 48 47 46 45 45 45 45 44 43 43 44 45 46 47 48 48 49 49 50 52 53 54 55 56 56 57 57 58 59 61 63 65 67 69 72 74 75 73 69 67 67 67 67 68 67 66
41 41 40 40 40 41 41 42 44 45 46 46 46 45 45 43 42 40 40 43 46 47 48 50 49 49 50 50 51 52 52 54 57 58 57 55 51 49 48 47 46 46 46 46 46 46 45 44 44 45 46 47 48 48 49 49 50 51 52 53 55 56 56 57 57 58 59 60 63 65 66 68 70 72 74 75 72 69 68 68 69 69 68 67 66
41 40 40 40 41 42 42 43 44 45 45 45 45 45 45 43 42 41 43 45 47 48 50 50 49 50 51 52 52 53 54 57 59 58 57 54 50 48 47 46 46 46 46 46 46 46 45 45 45 46 47 48 49 49 49 50 50 51 52 53 55 56 57 57 58 59 61 63 65 66 67 69 71 73 75 75 72 69 69 69 70 70 69 68 66
40 40 40 41 42 42 43 44 44 44 45 45 45 45 44 43 43 43 45 46 47 48 49 50 51 52 53 53 53 55 58 59 59 57 55 52 49 48 47 46 46 46 46 46 46 46 45 45 46 47 48 49 49 49 50 51 51 52 53 54 55 56 57 58 59 61 63 65 66 67 69 70 72 74 76 75 72 70 70 70 70 71 70 68 66
40 40 41 42 42 43 44 44 44 44 44 44 44 43 43 43 43 44 46 47 48 48 49 51 52 53 53 54 56 59 60 58 57 55 53 50 48 47 46 46 46 46 46 46 46 46 46 46 47 48 49 49 49 50 50 51 52 52 53 55 56 57 58 59 61 63 64 66 67 68 70 71 73 75 76 75 72 71 71 71 71 71 70 69 65
40 41 42 42 43 43 43 43 43 44 44 43 42 42 42 43 44 44 45 47 48 49 50 52 53 54 55 57 59 60 58 56 55 53 50 49 48 47 46 46 46 46 46 46 47 46 47 47 48 49 49 50 50 51 51 52 52 53 54 55 56 57 59 60 62 64 66 68 69 70 71 73 75 77 77 75 72 72 72 72 71 70 69 66 61
41 41 42 43 43 43 43 43 43 43 43 42 42 42 42 42 43 43 45 47 49 49 51 53 54 55 57 59 60 58 55 54 53 50 49 48 47 47 46 46 46 47 47 47 47 47 48 49 49 49 50 51 51 51 52 53 53 54 55 56 57 58 60 61 63 65 67 69 71 72 73 74 76 78 77 75 73 72 73 72 71 70 67 62 56
42 42 43 43 43 43 43 43 43 43 43 43 42 42 41 42 43 45 47 49 49 50 52 54 55 57 59 60 57 54 53 52 50 49 48 48 47 47 46 46 47 47 48 48 48 49 49 50 50 51 51 52 52 52 53 53 54 55 56 57 58 59 61 63 64 67 69 70 72 73 74 75 77 79 78 74 73 73 73 72 70 69 65 58 53
42 43 43 44 44 44 44 44 44 44 44 43 42 41 42 44 46 48 49 49 50 51 53 55 57 59 59 57 54 52 51 50 49 49 48 48 47 47 47 47 47 48 49 49 50 50 50 51 51 52 53 53 53 54 54 54 55 56 57 58 60 61 63 64 66 68 70 71 72 73 75 76 78 79 77 74 73 73 72 71 70 67 62 55 53
43 43 44 45 45 45 45 44 44 43 42 40 40 42 44 46 47 48 49 50 51 52 54 56 58 58 56 52 50 49 49 49 49 48 48 47 47 47 47 48 48 49 50 50 51 51 52 52 53 54 54 54 54 55 55 56 56 57 58 60 61 63 64 66 68 69 70 72 73 74 75 77 79 79 76 74 73 73 72 71 69 64 58 54 52
44 45 46 46 46 46 44 41 39 38 38 40 43 45 46 47 47 48 49 50 52 54 56 57 56 54 51 49 48 48 49 48 47 47 47 47 47 48 48 49 49 50 50 51 52 52 52 53 54 55 55 55 56 56 57 57 57 58 60 61 63 64 66 67 69 70 71 72 73 74 76 78 80 79 76 74 73 73 72 70 66 60 55 52 51
46 47 47 47 46 46 43 41 40 41 43 45 47 48 48 48 48 49 50 52 54 56 55 54 52 49 47 47 48 48 47 46 46 46 46 46 47 48 49 49 50 51 51 51 52 52 53 54 55 55 55 56 57 57 57 58 59 60 61 62 64 66 67 68 69 70 71 72 73 74 76 79 80 78 76 74 74 72 71 69 64 58 54 52 51
47 48 48 48 48 47 46 45 46 46 48 48 49 49 49 49 50 50 52 54 55 54 52 50 47 46 46 47 47 45 44 44 44 44 45 45 46 48 48 49 50 50 51 51 52 52 53 54 55 55 56 57 57 58 58 59 61 62 62 64 65 67 68 69 69 70 71 72 73 75 77 79 79 77 75 74 73 72 71 68 62 56 54 53 51
48 49 49 49 49 49 49 48 48 48 48 49 50 50 50 50 51 52 54 54 52 50 48 46 45 45 46 45 44 43 43 43 42 42 43 45 47 48 48 49 49 50 50 51 51 52 53 55 56 56 56 57 57 58 59 61 62 63 63 65 66 67 68 69 69 70 71 72 74 75 77 79 79 77 75 75 73 73 71 67 60 56 54 53 51
49 50 50 50 50 50 50 50 49 49 49 50 51 50 50 51 52 53 52 50 48 46 45 44 44 45 43 42 41 41 41 42 41 42 44 47 48 49 49 49 49 49 50 50 51 53 54 55 56 56 56 57 58 59 61 62 62 63 64 65 66 68 68 68 69 70 71 73 74 76 78 79 78 76 75 75 74 73 71 65 59 56 55 53 51
50 51 51 51 51 51 51 51 50 50 50 51 51 50 51 51 51 50 47 45 44 43 43 43 42 41 40 39 38 39 41 42 43 44 48 50 51 51 50 50 50 50 50 51 52 54 55 56 57 57 57 58 59 60 61 61 62 64 65 66 66 67 68 68 69 70 72 73 74 77 78 78 77 76 76 75 74 73 69 63 58 56 55 53 51
51 51 51 51 51 51 51 51 50 50 51 50 50 49 49 49 47 45 43 42 41 41 41 40 38 37 36 36 37 40 42 44 45 48 52 53 52 52 51 51 51 51 51 52 54 55 56 57 58 59 59 59 60 60 60 62 63 64 65 66 66 67 67 68 69 71 72 73 75 77 78 77 75 75 76 75 74 72 67 61 58 56 54 52 50
51 51 51 51 51 50 49 49 49 49 48 47 47 47 46 45 43 41 40 40 40 39 37 35 35 34 34 36 39 42 44 46 49 52 53 54 53 53 52 52 52 52 53 54 55 57 58 59 59 59 59 59 59 59 61 63 64 65 65 66 66 67 67 68 70 71 73 74 76 77 77 76 74 75 75 75 74 71 65 60 57 55 52 51 49
50 50 50 49 48 47 46 46 46 45 45 44 44 43 42 41 39 39 39 38 37 35 33 33 33 33 34 38 41 43 45 49 52 53 54 55 55 54 53 53 53 53 54 55 56 58 59 59 60 60 59 59 60 61 63 64 64 64 65 66 66 67 67 69 70 72 73 75 76 77 76 75 74 74 75 75 73 68 62 59 56 53 51 49 47
48 48 47 45 43 42 42 42 42 42 42 41 41 40 39 37 37 37 36 35 34 32 32 32 32 33 36 39 41 44 47 51 53 55 56 56 56 55 55 55 55 55 55 56 58 59 60 60 61 61 61 61 62 62 63 63 63 64 65 65 66 66 67 69 70 72 74 76 77 76 75 74 74 74 75 74 71 65 61 58 55 52 49 47 45
45 44 42 40 39 39 39 39 39 39 39 38 37 36 35 35 36 35 33 33 32 31 31 32 32 34 37 40 42 46 50 54 55 56 57 57 57 58 58 59 58 56 56 58 60 61 62 62 63 63 63 62 62 62 62 62 63 64 65 66 66 67 68 69 71 73 75 77 76 75 74 74 74 74 75 73 69 64 60 57 53 50 48 47 45
41 39 38 37 37 36 36 35 35 36 36 35 34 34 34 35 34 32 32 31 30 29 30 32 33 35 38 41 44 48 53 55 57 58 59 59 59 60 61 62 61 59 59 61 65 66 64 64 65 64 63 62 61 61 61 61 62 63 65 66 67 67 68 70 71 74 76 77 76 74 74 74 74 75 75 72 67 63 60 56 52 49 48 46 45
37 35 35 35 34 33 33 34 34 35 35 34 34 34 34 33 32 32 31 30 28 29 31 32 33 36 39 42 46 50 54 56 58 60 61 60 61 62 63 64 63 63 62 64 68 68 65 67 67 64 63 61 60 60 60 60 61 62 64 66 68 69 70 71 72 74 76 77 76 75 74 75 76 76 75 71 66 63 59 55 51 49 47 46 46
33 33 32 32 31 31 32 34 35 35 35 35 35 34 33 33 32 31 31 30 30 31 32 32 34 37 40 43 47 52 55 56 58 61 61 61 61 63 65 65 65 66 65 67 70 68 66 70 71 66 63 61 59 59 59 60 61 62 64 66 67 69 71 73 74 76 76 76 76 76 75 76 77 77 74 69 66 62 58 54 51 49 47 46 47
30 30 29 28 29 31 33 34 35 34 34 35 34 33 32 32 32 31 31 32 32 32 33 34 35 38 42 44 48 52 55 56 58 61 62 62 62 63 66 67 67 67 68 70 72 69 68 73 74 68 62 60 58 58 59 60 62 63 65 66 67 69 72 74 76 77 77 77 77 77 77 77 77 76 73 68 65 62 58 54 51 49 47 47 47
28 28 27 28 29 31 33 34 34 34 34 34 32 31 32 32 31 31 33 34 34 34 34 34 35 39 43 45 48 52 54 55 59 61 61 62 63 64 66 68 69 69 70 71 73 71 71 74 74 67 61 58 57 58 59 60 62 64 65 66 68 70 72 75 77 78 78 77 78 78 79 79 78 76 71 68 66 63 58 55 52 49 48 47 48
28 28 28 29 30 31 32 34 34 34 34 32 30 31 31 31 31 33 35 36 35 34 34 34 36 40 43 45 49 52 53 55 59 61 62 63 64 64 66 69 70 71 72 73 74 74 75 75 71 64 59 57 57 58 59 61 63 64 65 66 68 70 72 75 76 76 76 77 78 79 80 80 79 75 70 68 66 62 58 55 52 50 48 47 48
29 30 30 30 30 31 33 34 34 33 32 31 31 32 31 30 31 33 35 36 35 34 34 34 36 41 44 45 49 53 54 56 60 63 64 65 66 65 66 69 72 73 74 74 75 77 78 74 67 61 57 56 57 58 59 61 62 63 64 66 68 70 72 74 75 75 76 77 79 81 82 81 79 73 68 66 64 60 57 55 52 50 48 47 48
32 31 31 31 31 32 33 34 35 33 31 30 32 33 32 31 31 33 35 36 36 36 35 34 38 43 44 46 51 54 55 57 62 65 66 68 69 67 67 70 73 75 76 76 76 78 78 73 64 59 57 56 57 58 60 61 62 62 64 66 68 70 72 73 74 74 75 77 78 80 82 82 78 72 67 65 62 58 56 54 52 51 49 48 49
33 32 32 32 32 32 33 35 34 31 28 29 32 33 33 33 33 34 36 36 37 37 35 36 41 44 44 48 52 54 56 58 63 67 69 71 71 69 68 70 74 76 77 77 77 79 79 72 64 59 58 58 58 59 60 61 62 62 64 67 69 70 72 72 72 73 74 76 77 79 80 80 77 72 68 65 60 57 55 53 52 51 50 49 49
33 32 33 33 33 33 34 34 33 29 28 30 33 33 34 35 34 34 34 35 36 35 35 37 42 43 45 50 53 55 57 59 64 68 70 73 73 70 68 70 74 77 78 79 79 79 79 73 64 59 59 59 60 61 61 61 61 63 65 67 69 70 71 71 71 72 73 75 76 78 79 77 75 71 68 65 60 56 54 53 52 51 51 50 50
33 33 34 34 34 35 34 33 32 31 31 32 33 33 33 34 34 33 33 33 33 33 36 40 43 45 48 51 53 55 57 60 65 69 72 74 73 69 68 70 73 76 79 80 80 80 78 73 65 61 60 60 61 61 61 61 62 63 65 67 69 71 71 71 71 72 73 74 75 77 77 74 72 70 69 65 60 57 54 53 52 51 51 52 50
33 33 35 36 35 35 34 34 34 34 33 32 32 32 32 31 33 33 33 32 33 36 40 44 45 47 50 51 52 55 58 62 66 69 73 75 73 69 68 70 73 76 79 81 81 80 77 72 66 62 61 62 62 61 61 61 62 64 65 67 69 70 71 71 71 72 73 74 75 76 75 71 69 70 69 65 61 57 55 53 52 52 51 52 51
33 34 35 37 36 35 35 35 36 37 35 33 32 33 34 34 36 35 34 35 38 40 43 45 46 48 50 50 52 56 60 64 67 70 74 74 71 68 68 70 73 77 79 81 81 79 76 72 67 64 63 63 62 61 61 62 63 64 65 67 68 70 70 70 71 72 73 74 75 75 73 69 67 68 68 66 62 57 54 54 53 51 52 53 52
33 34 36 37 37 37 36 37 38 38 36 34 34 36 38 41 41 39 38 40 42 43 44 47 48 49 50 50 53 57 62 65 68 72 74 73 69 68 68 70 74 77 79 80 80 78 75 72 69 66 65 64 64 62 62 62 63 64 65 66 68 69 69 69 70 72 73 74 75 74 71 66 65 65 65 65 63 59 54 53 53 51 51 54 53
34 35 37 38 39 39 37 36 37 36 35 37 38 39 42 45 45 44 44 46 47 47 48 49 50 50 51 52 54 59 64 67 70 72 73 71 68 67 68 71 74 76 78 79 79 78 75 73 71 68 66 66 65 64 63 63 64 64 65 66 67 68 68 68 69 71 72 73 74 73 69 64 63 63 61 61 63 61 56 53 52 51 51 52 52
36 36 38 39 40 39 36 35 36 37 38 41 43 42 44 46 47 48 49 51 51 51 51 52 51 51 51 53 56 61 65 68 70 71 71 69 67 67 69 71 73 75 78 79 80 78 76 74 72 69 67 67 66 65 64 64 64 64 64 65 66 67 67 68 69 70 71 72 73 72 67 62 61 62 59 57 59 59 57 54 52 51 50 50 49
Wind_Direction
295 297 299 303 306 308 311 310 310 311 310 313 317 318 317 315 312 311 311 311 311 312 311 310 309 310 313 314 315 315 316 317 318 319 319 320 320 321 321 320 320 320 320 320 320 320 319 317 315 313 311 310 308 306 305 304 304 304 304 304 304 305 306 306 307 308 308 309 309 310 310 311 311 310 309 308 307 306 305 303 302 300 298 297 295
294 296 298 302 306 308 310 310 309 309 309 311 315 316 315 313 312 311 311 310 310 310 310 310 310 311 312 314 314 315 316 317 318 319 319 319 320 320 320 320 320 320 320 320 320 319 318 316 314 312 311 309 307 306 305 305 305 305 305 305 306 307 308 308 309 310 310 311 312 312 313 312 311 310 309 309 308 307 306 304 302 300 298 296 294
295 296 298 302 305 308 309 309 308 306 306 308 311 313 313 312 311 311 310 310 310 310 310 310 311 312 313 314 315 316 317 318 318 319 319 320 320 320 320 320 320 320 321 320 320 318 317 315 314 312 311 309 307 306 306 306 306 306 306 307 308 309 309 310 310 311 312 313 313 314 313 312 312 311 310 309 308 306 304 301 300 298 296 295 293
295 296 298 301 304 306 307 308 307 304 304 304 306 308 310 311 311 311 310 310 310 311 311 311 312 313 314 314 315 316 317 318 318 319 319 319 320 320 319 320 320 320 320 320 319 318 317 315 313 312 310 309 307 306 306 306 306 306 307 308 309 309 310 311 311 312 313 313 314 314 313 313 313 312 310 308 306 304 302 300 298 296 295 293 291
295 296 297 300 302 305 306 306 305 303 302 302 301 303 305 309 310 310 309 309 310 311 311 312 312 312 313 314 315 316 317 318 318 319 319 319 319 319 320 320 321 321 320 320 319 318 316 314 313 311 309 308 307 306 306 307 307 307 308 309 310 310 311 312 312 313 313 314 314 314 314 314 313 311 309 307 306 304 303 301 299 297 295 292 290
295 296 296 298 300 303 304 304 304 303 302 301 300 300 301 304 307 308 308 307 308 309 310 311 311 312 313 314 316 317 317 318 318 318 319 319 319 319 320 321 322 321 320 320 318 317 315 314 312 310 309 307 306 306 307 307 308 308 309 310 310 311 312 313 313 314 314 315 315 315 314 312 311 309 309 309 308 307 306 304 302 299 296 293 290
296 296 296 297 299 301 302 302 302 302 302 302 300 300 301 303 305 306 306 306 306 308 309 310 311 312 313 315 316 317 318 318 318 319 319 320 319 319 320 321 322 321 320 319 317 316 314 313 311 310 308 307 307 307 307 308 308 309 310 311 312 313 313 314 314 314 315 315 315 314 312 310 310 311 311 311 311 310 309 307 304 301 298 295 292
297 297 298 298 299 299 300 300 300 301 302 301 301 301 302 304 305 305 306 305 305 307 309 310 311 312 314 315 316 317 317 318 318 319 320 320 319 319 320 321 321 321 319 318 316 315 314 313 311 309 308 308 308 308 308 308 309 310 311 312 313 313 314 314 314 314 314 315 314 312 310 310 312 313 313 313 313 312 311 309 306 302 299 296 293
297 298 299 300 299 299 299 299 300 300 301 301 301 302 303 305 305 305 305 304 304 306 308 310 312 312 314 315 316 317 317 317 318 319 321 321 319 318 319 320 321 320 318 317 316 315 314 312 311 309 309 308 308 308 308 309 310 311 311 312 313 313 314 314 314 314 314 313 312 310 311 312 313 314 314 315 315 314 312 309 306 302 299 296 293
296 297 299 300 299 298 299 299 300 300 300 300 302 303 304 305 305 305 304 304 304 306 308 311 313 313 314 315 316 317 317 318 317 318 321 322 321 320 320 320 320 319 318 317 316 315 314 312 311 310 309 308 308 308 309 310 311 312 312 313 313 313 314 314 313 313 313 312 310 310 312 314 314 315 315 316 316 314 312 309 305 302 299 296 294
294 296 298 299 298 298 298 298 299 299 300 301 302 303 304 304 305 304 304 303 304 305 308 311 313 313 314 315 316 317 317 318 318 318 320 321 321 320 320 320 319 318 317 317 316 315 313 311 311 310 309 309 309 310 311 311 312 313 313 313 313 313 314 313 313 312 311 310 310 312 314 314 315 315 316 316 316 315 312 309 305 302 300 298 296
292 294 296 297 297 297 297 298 298 299 300 301 302 303 304 304 304 304 303 303 303 305 308 312 313 314 315 316 317 317 318 319 319 319 320 321 321 320 320 320 319 318 318 317 316 314 312 311 311 311 310 310 310 311 311 312 313 313 313 313 313 313 313 313 312 311 311 311 312 314 315 315 315 316 316 316 317 316 313 309 307 304 302 299 297
291 293 295 296 296 296 296 298 299 300 301 302 302 303 303 303 304 304 304 304 304 306 309 312 313 314 315 316 317 318 319 320 321 321 321 321 321 320 320 319 318 318 318 317 315 313 312 312 311 310 310 310 310 311 312 312 313 314 313 313 314 313 313 312 311 311 311 312 314 315 316 316 316 316 317 318 318 316 313 310 307 305 302 300 298
290 293 294 294 294 295 297 298 299 300 301 302 302 302 303 304 304 305 304 305 307 309 311 313 314 314 315 316 317 318 319 320 322 322 322 322 321 320 320 319 319 319 318 317 315 313 312 312 311 310 310 310 311 312 313 314 314 314 314 314 314 314 313 312 311 312 313 315 316 317 317 317 317 317 318 319 319 316 313 310 307 305 304 302 301
290 292 292 292 294 295 297 298 299 301 302 302 302 302 303 304 304 304 304 307 310 311 311 313 314 315 315 316 317 318 318 320 322 322 322 322 321 320 320 319 319 319 318 317 315 314 313 312 311 310 311 311 312 313 314 315 315 315 314 314 314 314 313 312 312 314 316 317 318 318 317 317 317 318 320 320 319 316 313 310 308 307 306 304 303
289 290 290 291 293 295 296 298 299 301 301 301 301 302 303 304 304 304 305 308 311 310 311 313 314 315 315 316 317 318 318 320 321 321 322 322 321 321 320 320 319 319 317 316 314 314 313 312 311 311 312 312 313 314 315 315 315 315 315 315 315 314 313 314 316 317 318 319 319 318 318 318 318 320 321 321 318 315 313 311 310 309 308 307 306
288 287 288 290 292 295 296 298 299 300 300 300 301 302 302 302 303 304 305 308 309 309 311 313 314 315 315 316 317 318 319 320 320 321 321 322 321 321 321 319 319 317 316 315 314 313 312 311 311 312 312 313 314 315 315 315 315 315 315 316 315 314 315 316 318 320 320 320 320 319 318 319 320 321 322 321 318 316 314 313 312 311 311 310 309
285 285 287 290 292 294 296 297 298 299 299 300 300 301 301 302 303 305 306 307 307 308 310 312 314 315 315 316 317 318 319 319 319 320 321 321 321 321 320 319 317 316 315 314 313 312 311 311 311 312 313 313 314 314 314 315 315 316 316 316 315 315 317 319 321 321 322 321 320 319 319 320 321 322 322 321 318 317 316 315 315 314 313 312 311
284 285 287 290 292 294 295 296 297 297 299 299 299 299 300 302 304 305 306 306 306 307 309 311 313 315 315 316 317 318 318 318 318 319 320 321 321 320 319 318 316 315 314 313 312 311 311 311 311 312 312 313 313 313 314 315 316 316 316 315 316 317 319 321 322 322 322 321 319 319 320 321 322 322 322 321 319 318 318 318 317 316 315 314 312
284 286 288 290 292 293 294 294 295 296 298 298 298 299 300 302 303 304 304 303 304 306 308 311 313 314 315 316 317 317 317 317 318 319 320 321 321 319 318 316 315 313 313 312 311 311 310 310 311 311 312 312 312 312 314 315 315 315 315 315 317 319 321 322 322 322 321 320 319 320 321 322 322 323 323 322 321 320 320 320 319 318 316 315 312
285 286 287 290 291 292 292 292 294 295 297 297 298 299 300 301 302 302 302 302 304 305 308 311 312 314 315 316 316 317 317 317 318 319 320 320 319 318 317 315 314 313 312 311 311 310 310 310 310 310 310 311 311 312 314 315 315 315 315 317 319 320 321 321 321 321 320 320 320 321 322 323 323 324 324 323 322 322 322 321 320 318 316 314 310
284 286 288 289 290 291 291 291 293 294 295 296 297 298 299 300 300 301 302 303 304 306 308 311 312 314 315 316 316 316 316 317 318 319 320 320 318 317 316 314 313 312 311 311 311 310 310 310 310 310 310 311 312 313 314 314 314 315 317 319 320 320 320 321 321 321 320 320 320 321 323 324 324 325 325 324 323 323 322 321 320 318 316 313 310
284 286 288 289 290 290 290 291 292 293 294 294 294 295 297 298 299 301 302 303 304 306 308 310 312 314 314 315 315 316 316 317 318 319 319 319 318 316 315 314 312 312 311 311 310 310 310 310 310 310 311 312 313 313 313 313 314 317 319 320 320 320 320 320 321 320 319 319 320 322 324 325 325 325 325 324 324 323 322 322 321 319 317 314 313
284 286 287 288 289 290 290 291 292 292 292 292 293 294 296 298 299 300 301 303 304 306 308 311 312 313 314 314 315 316 316 317 318 319 319 318 317 316 315 314 313 312 312 311 311 310 310 310 310 311 312 313 312 312 313 315 317 319 320 320 319 320 320 321 321 320 319 320 321 324 325 325 325 325 325 324 324 323 323 323 322 320 317 315 314
284 285 286 287 288 289 289 290 291 291 290 291 292 295 296 297 299 299 300 302 304 307 309 311 312 313 314 315 316 316 317 318 320 320 320 319 318 317 316 316 315 314 313 312 312 312 311 311 311 312 312 312 312 313 315 317 319 320 319 319 319 320 320 320 320 319 320 321 323 325 325 325 325 325 325 324 324 324 324 323 322 319 317 315 314
283 284 285 286 286 286 285 285 286 287 287 289 292 294 296 297 298 298 300 302 304 307 309 310 311 313 315 316 316 317 319 321 322 322 322 322 321 321 320 318 317 316 315 314 313 313 312 311 311 311 312 313 314 316 317 319 319 319 319 319 320 320 320 320 320 320 321 323 324 325 325 325 325 325 324 324 324 324 324 324 322 319 317 315 314
282 283 284 285 284 284 283 283 284 284 286 289 291 294 295 296 297 298 300 303 305 308 309 310 312 314 315 316 317 320 322 324 325 326 327 327 326 325 323 321 319 317 316 315 314 313 312 311 312 313 314 315 316 317 318 319 319 319 319 320 320 320 320 320 321 321 322 323 324 325 325 325 325 325 324 324 325 325 325 325 323 320 317 315 314
281 282 283 283 283 283 284 284 285 285 287 289 291 293 294 296 297 298 301 304 306 308 309 311 313 315 316 318 320 323 325 327 329 332 333 333 331 329 326 323 321 319 317 316 315 314 313 313 313 314 315 316 317 318 319 319 319 319 319 320 320 320 320 321 321 322 322 323 325 325 325 325 325 325 324 325 325 325 326 325 323 320 317 315 314
280 281 282 282 283 284 285 285 286 287 288 290 292 293 294 295 297 299 302 305 306 307 309 312 314 315 318 320 323 326 330 332 334 336 336 335 333 331 329 326 323 321 319 317 316 315 314 314 315 316 317 318 318 318 319 318 318 319 319 320 320 320 321 321 321 322 323 324 325 325 325 325 325 325 325 325 326 326 326 325 323 320 317 315 314
279 280 281 281 282 284 285 286 287 288 289 290 291 292 294 295 297 300 303 304 305 307 309 312 314 317 320 323 327 332 336 337 337 337 336 335 334 333 331 328 326 323 321 319 318 317 316 316 316 317 318 318 318 318 318 318 318 319 319 320 320 320 320 321 322 323 324 325 325 325 325 325 325 325 326 326 326 327 326 325 323 320 317 315 314
278 279 280 281 282 284 285 286 287 288 289 290 291 293 294 296 298 301 302 303 304 307 310 313 316 320 323 327 332 335 338 339 338 337 336 335 335 334 332 330 328 326 324 322 320 319 318 318 318 318 318 318 318 318 318 318 319 319 319 319 320 320 321 322 323 324 324 325 325 326 326 326 326 326 326 326 326 326 326 325 323 319 317 314 313
277 278 279 280 281 283 285 286 287 288 289 290 292 293 295 297 299 301 301 302 305 308 311 315 319 322 326 330 333 335 337 338 338 337 336 335 334 334 333 332 330 328 326 324 323 322 321 320 319 319 319 319 319 318 318 318 319 319 319 319 320 321 322 323 324 324 324 325 326 326 326 326 326 327 326 326 326 326 326 325 323 319 316 313 312
276 277 278 279 281 283 285 286 286 287 289 291 292 294 296 297 298 299 300 303 306 309 312 316 320 323 327 332 334 336 337 338 338 337 336 335 335 335 335 334 333 332 330 329 327 326 324 323 322 321 320 320 319 319 318 319 319 319 319 320 321 322 323 323 324 324 325 325 326 326 326 326 327 327 326 326 326 327 327 326 323 319 315 313 313
275 276 277 280 282 283 283 284 285 287 289 291 293 294 296 296 296 298 301 304 306 308 311 315 320 324 328 333 336 337 337 338 338 337 336 337 337 337 337 337 336 334 334 333 332 330 327 325 324 322 321 321 320 319 319 319 319 319 319 320 322 323 323 324 324 325 325 325 326 327 327 327 327 326 326 326 327 328 328 326 323 318 315 315 316
273 275 278 280 281 281 281 283 286 288 290 292 293 294 294 294 296 298 302 304 305 307 310 316 320 324 329 335 336 337 338 338 338 337 338 339 339 340 339 339 337 335 335 335 334 331 328 326 324 323 322 321 320 320 319 319 319 319 320 321 322 323 324 325 325 325 325 326 326 327 327 327 327 326 326 327 328 329 329 327 323 319 318 319 320
272 275 278 278 279 280 282 285 287 288 290 292 292 292 293 294 296 299 301 302 304 307 311 315 320 324 330 334 336 336 337 338 338 338 339 341 341 341 341 340 338 335 333 333 333 331 329 327 326 325 323 322 321 320 319 319 319 320 321 322 323 324 325 325 325 325 326 326 326 327 327 327 327 327 328 329 329 330 330 327 324 322 321 322 322
273 275 276 277 279 282 284 286 287 288 290 290 290 292 293 294 295 298 299 299 303 307 311 315 319 323 329 332 333 335 336 336 337 339 340 341 341 342 342 341 339 337 333 331 332 331 330 330 328 325 324 323 321 320 319 319 320 321 323 324 324 325 325 325 325 326 327 326 326 327 328 328 328 329 329 330 331 331 330 327 325 324 324 324 324
273 274 275 278 282 283 285 287 288 289 289 288 290 292 292 293 294 296 296 297 301 305 308 312 317 323 327 329 331 333 334 335 337 338 339 340 341 342 343 341 339 337 334 332 331 330 329 331 329 325 324 323 321 320 320 321 322 323 324 325 325 325 325 325 326 327 327 327 327 328 329 329 330 330 331 331 332 332 330 328 327 327 327 327 326
271 272 276 280 283 285 287 289 290 289 288 289 291 291 291 292 294 294 294 296 300 301 303 309 315 321 325 327 329 332 333 334 336 337 339 340 340 342 342 342 339 337 335 334 333 330 327 329 329 326 323 322 321 321 322 323 324 325 325 325 325 325 326 326 327 328 328 328 329 329 330 330 331 331 331 332 333 333 331 330 329 329 330 330 327
269 273 278 282 285 288 291 292 291 290 289 290 290 289 291 294 295 294 294 296 299 300 301 306 313 320 323 324 327 330 331 332 335 337 338 339 339 340 342 341 339 337 335 334 334 332 329 328 329 326 323 322 322 322 324 324 325 325 326 326 326 326 327 327 328 329 329 330 331 331 330 331 331 332 333 334 334 333 332 330 330 331 332 331 327
269 274 279 283 287 292 293 293 292 291 290 289 287 289 294 297 298 297 295 296 298 298 300 305 312 318 320 321 325 328 329 331 333 335 337 338 338 339 340 340 339 337 336 335 335 334 331 330 329 326 324 323 324 324 325 325 325 326 326 326 326 327 327 328 329 329 330 331 331 331 331 331 332 333 334 335 335 333 331 331 331 332 332 331 327
270 274 279 284 289 293 293 294 293 292 289 286 286 290 295 297 298 297 297 297 297 297 299 303 311 317 318 319 324 327 327 329 331 333 336 337 337 337 338 338 338 338 336 335 335 334 333 332 330 328 326 326 326 326 326 326 326 326 326 326 326 327 328 329 329 330 331 332 332 332 332 331 332 333 334 335 335 333 331 331 332 332 332 331 327
270 276 281 285 290 292 293 294 293 290 287 285 287 290 292 295 297 297 299 299 296 295 294 299 309 315 316 318 323 326 326 326 327 330 334 335 335 335 336 337 338 337 336 335 334 334 335 334 331 329 329 328 328 327 327 326 326 326 326 326 327 328 329 330 330 331 333 333 333 333 332 331 331 333 335 336 335 333 331 332 333 332 333 331 328
273 278 283 286 290 292 292 292 290 288 286 285 287 288 293 298 301 299 298 296 292 291 291 297 308 313 315 319 323 324 324 323 323 327 331 332 332 333 335 336 336 337 335 334 333 334 335 335 332 331 330 329 328 328 327 327 326 325 325 326 327 328 329 330 331 332 334 334 333 333 332 332 331 333 335 336 335 333 332 333 334 333 333 331 328
275 279 283 287 290 290 290 289 288 287 285 284 285 290 297 301 300 297 295 292 289 289 293 301 309 312 316 321 323 322 322 321 322 325 328 329 330 332 333 334 335 336 335 333 333 334 335 335 333 331 330 329 328 327 327 327 326 325 325 326 328 329 330 331 332 333 334 334 333 333 333 332 332 332 334 335 335 334 334 335 335 334 333 330 329
275 280 285 288 288 288 288 287 286 285 283 281 285 292 296 295 293 294 295 293 291 292 299 307 311 313 316 321 321 319 319 319 321 323 325 327 329 331 332 333 334 335 334 333 333 334 335 335 333 330 329 327 327 326 327 326 325 325 326 327 328 330 330 331 333 334 334 334 334 334 334 333 332 333 334 335 335 335 336 337 336 335 333 330 330
277 282 285 286 287 288 287 285 285 285 284 283 285 290 290 285 286 292 295 295 294 297 304 309 310 312 315 318 317 316 316 318 319 321 324 325 327 329 330 331 333 334 334 333 332 333 334 334 332 329 327 326 326 326 326 326 325 325 326 328 329 331 331 332 334 335 335 334 334 335 335 334 334 334 334 334 334 336 338 337 336 335 334 331 331
278 282 283 285 287 286 283 284 286 286 283 281 282 283 283 281 283 287 292 294 296 299 304 307 308 309 312 315 315 314 315 316 318 320 322 324 326 328 329 330 332 333 333 332 332 332 333 332 330 328 326 326 326 326 326 325 325 325 327 328 330 331 332 333 335 335 335 335 335 336 336 336 335 335 334 333 333 336 339 338 336 336 335 331 332
278 281 282 284 283 281 281 284 287 286 280 278 278 278 277 278 281 284 289 293 295 298 302 304 305 307 310 313 313 313 314 315 316 318 320 322 324 326 327 329 331 332 332 332 331 331 331 330 328 326 325 326 326 326 325 324 324 325 327 329 331 331 333 334 335 336 335 335 335 337 337 336 336 336 334 332 332 336 340 338 336 337 336 332 332
278 279 280 279 278 279 282 283 284 283 280 278 279 279 279 279 280 281 284 289 293 296 300 302 302 306 310 311 311 311 312 313 314 317 319 322 323 325 326 328 331 332 332 331 330 330 330 328 326 323 323 324 325 325 324 323 324 325 327 329 331 332 333 335 336 336 336 336 336 337 338 337 337 337 335 332 330 334 338 338 336 338 337 333 332
276 277 277 276 275 277 279 279 279 279 278 277 277 279 282 284 283 281 282 286 289 293 295 297 300 304 308 308 308 310 312 312 314 317 319 321 322 323 325 328 330 331 331 331 330 329 328 327 325 322 319 320 322 322 322 322 323 325 327 329 331 332 334 335 336 336 336 336 337 338 338 338 337 337 336 333 331 332 336 337 337 337 336 333 332